TSP Talk
logout   logout
Contact Us | Logout
     
November 24, 2017, 7:47 am (ET / EDT)
TSP Talk Market Comments TSP AutoTracker Premiums Site Map TSP Funds Forum Returns

                 
Tracker Main Menu | Tracker Member Menu | My IFT Records | How to Get Started | Email Updates
                 

Members ranking and current allocation as of: 2017-11-22 (COB)

Press Go back to the previous page   

View a specific date "yyyy-mm-dd"

Underlined column headings can be sorted
Rank Username YTD Returns MTD Returns Start Date
1 chemmie 24.40 % 2.13 % 2017-01-01
2 crispy 22.53 % 0.31 % 2017-01-01
3 judochop 22.53 % ** 0.31 % 2017-01-01
4 I-fund 22.53 % 0.31 % 2017-01-01
5 nightlite 22.53 % ** 0.31 % 2017-01-01
6 jrutherford2 22.53 % ** 0.31 % 2017-01-01
7 DCKevin 22.53 % ** 0.31 % 2017-01-01
8 2GodBtheGLORY 22.53 % ** 0.31 % 2017-01-01
9 BearTrap 22.53 % ** 0.31 % 2017-01-01
10 jajo1554 22.53 % ** 0.31 % 2017-01-01
11 Kahuna6969 22.53 % ** 0.31 % 2017-01-01
12 SavyNeal 22.53 % ** 0.31 % 2017-01-01
13 Sunnyday 22.53 % ** 0.31 % 2017-01-01
14 Shawhardy 22.53 % ** 0.31 % 2017-01-01
15 cmccall661 22.05 % 2.50 % 2017-01-01
16 RV7 21.27 % 0.31 % 2017-01-01
17 Birchtree 21.26 % ** 0.51 % 2017-01-01
18 Mantonelli 20.84 % ** 1.04 % 2017-01-01
19 SWAVET 20.33 % 1.41 % 2017-01-01
20 lbeeba8862 20.32 % ** 0.66 % 2017-01-01
21 robertbr1963 20.28 % ** 0.67 % 2017-01-01
22 tom1tom1 20.03 % -0.25 % 2017-01-01
23 dillpickle * 19.92 % ** 0.31 % 2017-01-13
24 dunwichman 19.68 % ** 0.77 % 2017-01-01
25 Sports_Night 19.60 % ** 0.78 % 2017-01-01
26 sonyctx 19.60 % ** 0.78 % 2017-01-01
27 thebreen 19.24 % 0.84 % 2017-01-01
28 brentmc 19.15 % ** 0.85 % 2017-01-01
29 Tot_Global_Mkt 19.08 % ** 0.87 % 2017-01-01
30 triquasar 19.06 % ** 0.31 % 2017-01-01
31 14bk41 19.04 % 1.01 % 2017-01-01
32 STCjUnKie 19.03 % ** 0.88 % 2017-01-01
33 rdsox05 19.03 % ** 0.88 % 2017-01-01
34 bozdog 19.02 % ** 0.88 % 2017-01-01
35 Monzie * 18.93 % ** 0.31 % 2017-01-31
36 Jrfich 18.92 % ** 1.22 % 2017-01-01
37 JPW77 18.86 % ** 0.91 % 2017-01-01
38 krempajs 18.85 % ** 0.91 % 2017-01-01
39 lifeasrxd 18.85 % ** 0.91 % 2017-01-01
40 misg4420 18.83 % ** 0.91 % 2017-01-01
41 andy 18.82 % ** 0.91 % 2017-01-01
42 jmtz54 18.81 % 0.43 % 2017-01-01
43 1crazyfatboy 18.81 % ** 0.91 % 2017-01-01
44 Skip 18.76 % ** 0.31 % 2017-01-01
45 sdidieu 18.75 % ** 0.92 % 2017-01-01
46 mboja 18.73 % ** 0.93 % 2017-01-01
47 hawktecc1 18.70 % ** 0.93 % 2017-01-01
48 waveman43 18.69 % ** 0.93 % 2017-01-01
49 lawnman 18.69 % ** 0.94 % 2017-01-01
50 fishhead 18.68 % ** 0.93 % 2017-01-01
Rank Username YTD Returns MTD Returns Start Date
51 Beagle * 18.67 % 1.03 % 2017-01-24
52 american42 18.67 % ** 0.94 % 2017-01-01
53 RDJ67 18.66 % 0.39 % 2017-01-01
54 markmars 18.64 % ** 0.94 % 2017-01-01
55 hg1866 18.63 % ** 0.94 % 2017-01-01
56 arquintana 18.63 % ** 0.94 % 2017-01-01
57 GFundBaby 18.62 % ** 0.95 % 2017-01-01
58 dctarheel 18.61 % ** 0.95 % 2017-01-01
59 HarleyLar 18.59 % ** 0.31 % 2017-01-01
60 Hodster 18.59 % ** 0.95 % 2017-01-01
61 tshare999 18.59 % ** 0.95 % 2017-01-01
62 GEW 18.56 % ** 0.96 % 2017-01-01
63 furafura 18.56 % ** 0.95 % 2017-01-01
64 Moore 18.56 % ** 0.95 % 2017-01-01
65 danie906 18.55 % ** 0.96 % 2017-01-01
66 Renegade 18.53 % ** 0.96 % 2017-01-01
67 bloodbath 18.52 % ** 0.96 % 2017-01-01
68 cojo1988 18.52 % ** 0.96 % 2017-01-01
69 etawx 18.52 % ** 0.96 % 2017-01-01
70 crazyjames 18.52 % ** 0.93 % 2017-01-01
71 millstadt05 18.51 % ** 0.96 % 2017-01-01
72 flashmanxx 18.51 % ** 0.96 % 2017-01-01
73 Forecaster 18.49 % ** 0.97 % 2017-01-01
74 wwwtractor 18.48 % ** 0.97 % 2017-01-01
75 noclue 18.46 % 0.97 % 2017-01-01
76 Mista_Magee 18.44 % 0.53 % 2017-01-01
77 dodgerblioux 18.43 % ** 0.98 % 2017-01-01
78 PICK68 18.43 % ** 0.98 % 2017-01-01
79 fluffypotato 18.42 % ** 0.94 % 2017-01-01
80 guahan96 18.40 % ** 0.98 % 2017-01-01
81 Cheng 18.39 % 0.68 % 2017-01-01
82 rch8710 18.39 % ** 0.98 % 2017-01-01
83 Ghageman 18.37 % ** 0.99 % 2017-01-01
84 JVC1979 18.36 % 1.65 % 2017-01-01
85 jnchandrew 18.36 % 0.31 % 2017-01-01
86 CRUSHER 18.36 % ** 0.99 % 2017-01-01
87 Pill 18.34 % 0.99 % 2017-01-01
88 EdwardSF 18.33 % ** 0.99 % 2017-01-01
89 Kong13 18.32 % ** 1.00 % 2017-01-01
90 spinslight1 18.31 % ** 1.00 % 2017-01-01
91 invisiblebutterknife 18.27 % ** 1.00 % 2017-01-01
92 Spydercop 18.26 % 0.85 % 2017-01-01
93 Ozzy_357924 18.23 % ** 0.98 % 2017-01-01
94 aminze 18.23 % ** 1.01 % 2017-01-01
95 cook79768 18.22 % ** 1.01 % 2017-01-01
96 dlb11693 18.17 % ** 1.02 % 2017-01-01
97 redman1970 18.15 % ** 1.03 % 2017-01-01
98 Sarchie 18.11 % 1.03 % 2017-01-01
99 xsoljuhxpnoi929 18.11 % 1.03 % 2017-01-01
100 BigMike 18.11 % 1.03 % 2017-01-01
Rank Username YTD Returns MTD Returns Start Date
101 berg1315 18.11 % ** 1.03 % 2017-01-01
102 C-fund 18.11 % 1.03 % 2017-01-01
103 Kayakfish 18.11 % ** 1.03 % 2017-01-01
104 JTH 18.11 % ** 1.03 % 2017-01-01
105 JTH-ALPAFS 18.11 % ** 1.03 % 2017-01-01
106 JTH-ESD 18.11 % ** 1.03 % 2017-01-01
107 MMAC_POPS 18.11 % ** 1.03 % 2017-01-01
108 cthomas946 18.11 % ** 1.03 % 2017-01-01
109 agogley 18.11 % ** 1.03 % 2017-01-01
110 respro 18.11 % ** 1.03 % 2017-01-01
111 brobrash 18.11 % ** 1.03 % 2017-01-01
112 ranma143 18.11 % ** 1.03 % 2017-01-01
113 Lucky91 18.11 % ** 1.03 % 2017-01-01
114 Mack-Daddy 18.11 % ** 1.03 % 2017-01-01
115 Devilduck 18.11 % ** 1.03 % 2017-01-01
116 HotRod 18.11 % ** 1.03 % 2017-01-01
117 Jrgruters42 18.11 % ** 1.03 % 2017-01-01
118 abqsammy 18.11 % ** 1.03 % 2017-01-01
119 BLPinDC 18.11 % ** 1.03 % 2017-01-01
120 CheckRaze 18.11 % ** 1.03 % 2017-01-01
121 Heisenberg 18.11 % ** 1.03 % 2017-01-01
122 jssmith58 18.11 % ** 1.03 % 2017-01-01
123 leadoff2 18.11 % ** 1.03 % 2017-01-01
124 MadMoneyJesse 18.11 % ** 1.03 % 2017-01-01
125 melandblue 18.11 % ** 1.03 % 2017-01-01
126 mepage 18.11 % ** 1.03 % 2017-01-01
127 messimoves 18.11 % ** 1.03 % 2017-01-01
128 MOVINUP 18.11 % ** 1.03 % 2017-01-01
129 pcola5625 18.11 % ** 1.03 % 2017-01-01
130 ShadowAx 18.11 % ** 1.03 % 2017-01-01
131 Sirius 18.11 % ** 1.03 % 2017-01-01
132 squid3326 18.11 % ** 1.03 % 2017-01-01
133 TheRealEDtheFED 18.11 % ** 1.03 % 2017-01-01
134 usfwsduckriverman 18.11 % ** 1.03 % 2017-01-01
135 deward 18.07 % ** 1.04 % 2017-01-01
136 petersons 18.04 % ** 1.05 % 2017-01-01
137 Knight25 18.04 % ** 1.05 % 2017-01-01
138 Macgyva 18.04 % ** 1.04 % 2017-01-01
139 Short 18.04 % ** 1.04 % 2017-01-01
140 BirchNWS 18.02 % ** 1.05 % 2017-01-01
141 temptec 17.98 % ** 0.88 % 2017-01-01
142 adestonobis 17.97 % 1.41 % 2017-01-01
143 BrandesValue 17.94 % ** 1.02 % 2017-01-01
144 BessMan94 17.93 % ** 1.06 % 2017-01-01
145 evimoore 17.92 % ** 1.07 % 2017-01-01
146 sapfm 17.91 % ** 1.07 % 2017-01-01
147 jswright 17.90 % ** 1.07 % 2017-01-01
148 dtrax 17.85 % ** 1.08 % 2017-01-01
149 jason011235813 17.81 % ** 0.90 % 2017-01-01
150 Boozin1 17.80 % ** 1.09 % 2017-01-01
Rank Username YTD Returns MTD Returns Start Date
151 maverick06 17.76 % ** 1.03 % 2017-01-01
152 workdamnit 17.73 % ** 1.10 % 2017-01-01
153 jaks51 17.73 % ** 1.10 % 2017-01-01
154 IceJoe 17.71 % ** 1.10 % 2017-01-01
155 sarriola 17.69 % ** 0.86 % 2017-01-01
156 grube00 17.68 % ** 0.95 % 2017-01-01
157 Morpheus 17.66 % ** 1.11 % 2017-01-01
158 jsmiles 17.64 % ** 1.30 % 2017-01-01
159 smiles 17.64 % ** 1.30 % 2017-01-01
160 cwbys223 17.60 % ** 1.12 % 2017-01-01
161 evchau 17.59 % 1.28 % 2017-01-01
162 almostdone 17.59 % ** 1.12 % 2017-01-01
163 bcf0514 17.58 % ** 1.12 % 2017-01-01
164 Gethers 17.57 % ** 0.80 % 2017-01-01
165 Sniki 17.57 % ** 1.12 % 2017-01-01
166 vafunkie 17.50 % ** 1.14 % 2017-01-01
167 cyoa1fan 17.49 % 0.14 % 2017-01-01
168 revel 17.47 % ** 1.14 % 2017-01-01
169 Craigart 17.47 % ** 1.14 % 2017-01-01
170 NtvTxan 17.46 % 0.14 % 2017-01-01
171 GWXX 17.46 % ** 1.14 % 2017-01-01
172 gaharris 17.39 % ** 1.16 % 2017-01-01
173 RoldanFam 17.38 % ** 0.71 % 2017-01-01
174 urmomzbox 17.38 % ** 1.16 % 2017-01-01
175 trobbi33 17.37 % 1.16 % 2017-01-01
176 WallStreet 17.37 % ** 1.16 % 2017-01-01
177 Kotcha 17.36 % ** 1.16 % 2017-01-01
178 pokerstar629 17.32 % 1.90 % 2017-01-01
179 garrisoco 17.27 % ** 1.18 % 2017-01-01
180 Total_US_Market 17.27 % ** 1.18 % 2017-01-01
181 Piniquim 17.26 % ** 1.18 % 2017-01-01
182 rotti 17.26 % ** 1.18 % 2017-01-01
183 dcmorgan 17.26 % ** 1.18 % 2017-01-01
184 Scarfinger68 17.25 % ** 1.18 % 2017-01-01
185 Widget 17.25 % ** 1.18 % 2017-01-01
186 shagerty 17.25 % ** 1.18 % 2017-01-01
187 8_percent 17.24 % ** 1.03 % 2017-01-01
188 DakotaKid 17.24 % ** 1.18 % 2017-01-01
189 jbwalters 17.21 % 1.88 % 2017-01-01
190 kmx23 17.21 % ** 1.04 % 2017-01-01
191 Rod 17.20 % 1.19 % 2017-01-01
192 bombnav1 17.20 % ** 1.04 % 2017-01-01
193 kbennet1 17.19 % ** 0.31 % 2017-01-01
194 Clemso 17.16 % ** 1.20 % 2017-01-01
195 soupykid 17.15 % 0.86 % 2017-01-01
196 eecscoder 17.15 % ** 1.20 % 2017-01-01
197 gsamx 17.15 % ** 1.20 % 2017-01-01
198 DigDugII 17.13 % ** 1.21 % 2017-01-01
199 Damndogs 17.12 % 1.13 % 2017-01-01
200 KyFan1 17.12 % 1.41 % 2017-01-01
Rank Username YTD Returns MTD Returns Start Date
201 Beamer 17.11 % 0.88 % 2017-01-01
202 meltuna 17.10 % ** 0.58 % 2017-01-01
203 MoneyManager 17.08 % ** 1.21 % 2017-01-01
204 jpaulhus 17.07 % ** 1.21 % 2017-01-01
205 valions15 17.07 % ** 1.21 % 2017-01-01
206 rivs 17.07 % ** 1.21 % 2017-01-01
207 pcalderin 17.06 % 1.21 % 2017-01-01
208 KneednDough 17.06 % ** 1.22 % 2017-01-01
209 HocusPocus 17.06 % ** 1.21 % 2017-01-01
210 SPN46er 17.05 % ** 1.22 % 2017-01-01
211 Rumpelstilzchen 17.05 % ** 1.22 % 2017-01-01
212 vbbikerbums 17.05 % ** 1.22 % 2017-01-01
213 Ddarko 17.05 % ** 1.22 % 2017-01-01
214 SuzinCity 17.05 % ** 1.22 % 2017-01-01
215 dunedad 17.04 % 1.22 % 2017-01-01
216 OBGibby 17.04 % ** 1.22 % 2017-01-01
217 helen 17.04 % ** 1.22 % 2017-01-01
218 jamilaunc 17.04 % ** 1.22 % 2017-01-01
219 SSJodon 17.04 % ** 1.22 % 2017-01-01
220 future 17.04 % ** 1.22 % 2017-01-01
221 Raxser 17.04 % ** 1.22 % 2017-01-01
222 retire2017 17.04 % ** 1.22 % 2017-01-01
223 weigerber55 17.04 % ** 1.22 % 2017-01-01
224 drgonzo58 17.04 % ** 1.22 % 2017-01-01
225 25or6to4 17.03 % 1.22 % 2017-01-01
226 poolman 17.03 % ** 1.22 % 2017-01-01
227 jayew007 17.03 % ** 1.22 % 2017-01-01
228 mceglia 17.03 % ** 1.22 % 2017-01-01
229 SkyPilot 17.03 % ** 1.22 % 2017-01-01
230 bettertrader 17.03 % ** 1.22 % 2017-01-01
231 bubba71842 17.03 % ** 1.22 % 2017-01-01
232 divemonkey 17.03 % ** 1.22 % 2017-01-01
233 Lucas123 17.03 % ** 1.22 % 2017-01-01
234 packerbart 17.02 % 1.22 % 2017-01-01
235 inyadreems 17.02 % ** 1.22 % 2017-01-01
236 elufints 17.02 % ** 1.22 % 2017-01-01
237 RAMORIPKIN 17.02 % ** 1.22 % 2017-01-01
238 don3149 17.01 % ** 1.22 % 2017-01-01
239 scubasteve1 17.01 % ** 1.22 % 2017-01-01
240 Stony 17.01 % ** 1.22 % 2017-01-01
241 surftec 17.01 % ** 1.22 % 2017-01-01
242 tgun 17.01 % ** 1.22 % 2017-01-01
243 tlap612 17.00 % ** 1.22 % 2017-01-01
244 JG2017 17.00 % ** 1.22 % 2017-01-01
245 rossbrian00 16.99 % ** 1.23 % 2017-01-01
246 tsclippinger 16.99 % ** 0.89 % 2017-01-01
247 MYDOGZCUTE 16.99 % ** 1.23 % 2017-01-01
248 AzzySpazbourne 16.99 % ** 1.11 % 2017-01-01
249 freemanick 16.98 % 0.27 % 2017-01-01
250 retire15 16.96 % ** 1.41 % 2017-01-01
Rank Username YTD Returns MTD Returns Start Date
251 tmntrc56 16.96 % ** 1.23 % 2017-01-01
252 uf_rjeezy 16.93 % 1.41 % 2017-01-01
253 Wizard_of_Oz 16.93 % ** 1.24 % 2017-01-01
254 RWJorg 16.91 % ** 1.03 % 2017-01-01
255 TSP-roulette 16.87 % ** 1.19 % 2017-01-01
256 Sandbagger6 16.84 % 1.06 % 2017-01-01
257 joharo 16.84 % ** 1.25 % 2017-01-01
258 janemattress711 16.83 % ** 0.67 % 2017-01-01
259 Gain10 16.83 % ** 1.25 % 2017-01-01
260 Niner49er52 16.82 % ** 1.26 % 2017-01-01
261 TSPBrett 16.82 % ** 1.26 % 2017-01-01
262 DoughBoy 16.80 % 1.26 % 2017-01-01
263 texcc 16.80 % ** 1.41 % 2017-01-01
264 rwwjr65 16.80 % ** 1.26 % 2017-01-01
265 kibey84 16.80 % ** 1.26 % 2017-01-01
266 martint4 16.79 % ** 1.09 % 2017-01-01
267 itsRaining 16.78 % ** 1.26 % 2017-01-01
268 shaner19er 16.78 % ** 0.96 % 2017-01-01
269 puppylove 16.76 % ** 1.20 % 2017-01-01
270 Bullet 16.74 % ** 1.41 % 2017-01-01
271 nicole5001 16.74 % ** 0.92 % 2017-01-01
272 rebel346 16.73 % ** 0.31 % 2017-01-01
273 markisrt4 16.72 % ** 0.73 % 2017-01-01
274 Big_Sarge 16.71 % ** 1.26 % 2017-01-01
275 jpcavin 16.69 % 1.10 % 2017-01-01
276 rjeeeeezy 16.65 % ** 1.12 % 2017-01-01
277 BigLair 16.63 % 0.45 % 2017-01-01
278 miyagi 16.62 % ** 1.22 % 2017-01-01
279 Awsum_Al 16.62 % ** 1.29 % 2017-01-01
280 glysergt 16.61 % ** 1.00 % 2017-01-01
281 Tubman83 16.61 % ** 1.30 % 2017-01-01
282 stacks 16.60 % ** 1.30 % 2017-01-01
283 gsrider 16.59 % 0.78 % 2017-01-01
284 jplecain 16.59 % ** 0.81 % 2017-01-01
285 Kafkaesquee 16.59 % ** 1.30 % 2017-01-01
286 JimmyJoe 16.57 % ** 1.30 % 2017-01-01
287 buckeyefan201 16.56 % ** 0.99 % 2017-01-01
288 siidman 16.55 % 0.79 % 2017-01-01
289 felinecrl 16.55 % 0.31 % 2017-01-01
290 Andeano 16.55 % ** 0.96 % 2017-01-01
291 jdeacon 16.54 % 0.92 % 2017-01-01
292 Burt 16.51 % ** 1.31 % 2017-01-01
293 ijmurray 16.50 % 1.32 % 2017-01-01
294 Bullseye 16.50 % ** 1.32 % 2017-01-01
295 Barney 16.50 % ** 1.32 % 2017-01-01
296 savagemojo 16.50 % ** 1.32 % 2017-01-01
297 BrkBred247 16.44 % 1.03 % 2017-01-01
298 Pittdog 16.43 % 0.94 % 2017-01-01
299 tankerclown 16.42 % 0.96 % 2017-01-01
300 mpie72 16.41 % ** 1.07 % 2017-01-01
Rank Username YTD Returns MTD Returns Start Date
301 widdicom 16.39 % 1.33 % 2017-01-01
302 markopolno12 16.38 % ** 1.34 % 2017-01-01
303 william4x 16.36 % ** 1.07 % 2017-01-01
304 pdug 16.33 % 0.81 % 2017-01-01
305 vexter 16.31 % ** 1.03 % 2017-01-01
306 BigBully 16.30 % 1.69 % 2017-01-01
307 Boots22 16.30 % ** 0.82 % 2017-01-01
308 RookieInvestor 16.30 % ** 0.94 % 2017-01-01
309 mrtruckaudi 16.29 % 1.13 % 2017-01-01
310 Highroller 16.29 % 1.01 % 2017-01-01
311 sage 16.29 % ** 1.06 % 2017-01-01
312 silversurfer 16.28 % 1.43 % 2017-01-01
313 UCFVern 16.28 % ** 0.67 % 2017-01-01
314 ksteiner560 16.26 % 0.97 % 2017-01-01
315 modom07 * 16.24 % 0.84 % 2017-02-02
316 LilLair 16.20 % ** 0.77 % 2017-01-01
317 goforit 16.19 % ** 0.88 % 2017-01-01
318 Mucho_Dinero 16.18 % 0.36 % 2017-01-01
319 Jayt23 16.17 % ** 0.76 % 2017-01-01
320 L2050 16.17 % 0.76 % 2017-01-01
321 tashabh 16.17 % ** 0.76 % 2017-01-01
322 Caith 16.17 % ** 0.76 % 2017-01-01
323 Kjay 16.17 % ** 0.76 % 2017-01-01
324 gio20 16.17 % ** 0.76 % 2017-01-01
325 doug.hornback 16.17 % ** 0.76 % 2017-01-01
326 khunk 16.17 % ** 0.76 % 2017-01-01
327 qbcall11 16.17 % ** 0.76 % 2017-01-01
328 Shivers 16.17 % ** 0.76 % 2017-01-01
329 Wrngway 16.17 % ** 0.76 % 2017-01-01
330 DesertBoots77 16.17 % ** 0.76 % 2017-01-01
331 badgerland 16.16 % 1.07 % 2017-01-01
332 roonie 16.15 % 1.22 % 2017-01-01
333 LAT 16.15 % 2.37 % 2017-01-01
334 bluecrab 16.13 % ** 0.91 % 2017-01-01
335 Jqsomera 16.13 % ** 0.96 % 2017-01-01
336 tucahay 16.11 % 1.41 % 2017-01-01
337 OldGoat * 16.11 % ** 0.31 % 2017-01-11
338 martycox88 16.11 % ** 1.41 % 2017-01-01
339 evob 16.08 % ** 0.86 % 2017-01-01
340 PIC153BD 16.06 % ** 1.36 % 2017-01-01
341 ksklmiller 16.06 % ** 1.10 % 2017-01-01
342 mosicki 16.05 % ** 1.09 % 2017-01-01
343 CapnEddie 16.04 % ** 1.41 % 2017-01-01
344 atarrin 16.04 % ** 0.85 % 2017-01-01
345 Knot_Guilty 16.02 % ** 0.77 % 2017-01-01
346 Unmanned 16.01 % 0.91 % 2017-01-01
347 spacepoints 16.00 % ** 0.80 % 2017-01-01
348 Jayru 15.97 % ** 0.93 % 2017-01-01
349 marco59 15.96 % 1.41 % 2017-01-01
350 MahiChaser 15.96 % 1.41 % 2017-01-01
Rank Username YTD Returns MTD Returns Start Date
351 steve10608 15.96 % 1.41 % 2017-01-01
352 Hank2 15.96 % 1.41 % 2017-01-01
353 Babygirl07 15.96 % 1.41 % 2017-01-01
354 Racerx919 15.96 % 1.41 % 2017-01-01
355 skid-kid 15.96 % ** 1.41 % 2017-01-01
356 48cj2a 15.96 % ** 1.41 % 2017-01-01
357 b52vqn 15.96 % ** 1.41 % 2017-01-01
358 G-Money 15.96 % ** 1.41 % 2017-01-01
359 krash9561 15.96 % ** 1.41 % 2017-01-01
360 MaStA 15.96 % ** 1.41 % 2017-01-01
361 jwblanfo 15.96 % ** 1.41 % 2017-01-01
362 Cashflow911 15.96 % ** 1.41 % 2017-01-01
363 gronk007 15.96 % ** 1.41 % 2017-01-01
364 NavyEng 15.96 % ** 1.41 % 2017-01-01
365 kodaq2001 15.96 % ** 1.41 % 2017-01-01
366 caseyd8s 15.96 % ** 1.41 % 2017-01-01
367 a1sauce 15.96 % ** 1.41 % 2017-01-01
368 ckeiththeman 15.96 % ** 1.41 % 2017-01-01
369 madchili 15.96 % ** 1.41 % 2017-01-01
370 radarvector 15.96 % ** 1.41 % 2017-01-01
371 Peteylaw06 15.96 % ** 1.41 % 2017-01-01
372 ccarrolls 15.96 % ** 1.41 % 2017-01-01
373 kcfz0t 15.96 % ** 1.41 % 2017-01-01
374 ttn 15.96 % ** 1.41 % 2017-01-01
375 S-fund 15.96 % 1.41 % 2017-01-01
376 jmartello 15.96 % ** 1.41 % 2017-01-01
377 n.shift 15.96 % ** 1.41 % 2017-01-01
378 mikepriest 15.96 % ** 1.41 % 2017-01-01
379 Reggie0622 15.96 % ** 1.41 % 2017-01-01
380 mxtwo50r 15.96 % ** 1.41 % 2017-01-01
381 dseery3 15.96 % ** 1.41 % 2017-01-01
382 spantzer 15.96 % ** 1.41 % 2017-01-01
383 jbvollmer 15.96 % ** 1.41 % 2017-01-01
384 bylow-cellhi 15.96 % ** 1.41 % 2017-01-01
385 mr47930 15.96 % ** 1.41 % 2017-01-01
386 canmannc 15.96 % ** 1.41 % 2017-01-01
387 captjamied 15.96 % ** 1.41 % 2017-01-01
388 Bettinainc 15.96 % ** 1.41 % 2017-01-01
389 Woodys_World 15.96 % ** 1.41 % 2017-01-01
390 jetjammr 15.96 % ** 1.41 % 2017-01-01
391 68chevy 15.96 % ** 1.41 % 2017-01-01
392 sythbpr 15.96 % ** 1.41 % 2017-01-01
393 Aiagib 15.96 % ** 1.41 % 2017-01-01
394 atenciord 15.96 % ** 1.41 % 2017-01-01
395 scaredstiff 15.96 % ** 1.41 % 2017-01-01
396 kleios 15.96 % ** 1.41 % 2017-01-01
397 walterramjet 15.96 % ** 1.41 % 2017-01-01
398 RabbiTuckman 15.96 % ** 1.41 % 2017-01-01
399 Dexter 15.96 % ** 1.41 % 2017-01-01
400 BReine13 15.96 % ** 1.41 % 2017-01-01
Rank Username YTD Returns MTD Returns Start Date
401 DylanFan 15.96 % ** 1.41 % 2017-01-01
402 mollshark 15.96 % ** 1.41 % 2017-01-01
403 recki13 15.96 % ** 1.41 % 2017-01-01
404 kawzman 15.96 % ** 1.41 % 2017-01-01
405 NiteFlyer 15.96 % ** 1.41 % 2017-01-01
406 sniper 15.96 % ** 1.41 % 2017-01-01
407 Uptrend 15.96 % ** 1.41 % 2017-01-01
408 Legend 15.96 % ** 1.41 % 2017-01-01
409 barryc 15.96 % ** 1.41 % 2017-01-01
410 HookemDanno 15.96 % ** 1.41 % 2017-01-01
411 vdubya 15.96 % ** 1.41 % 2017-01-01
412 Dave98 15.96 % ** 1.41 % 2017-01-01
413 applejack 15.96 % ** 1.41 % 2017-01-01
414 D_Brown 15.96 % ** 1.41 % 2017-01-01
415 Piesanders 15.96 % ** 1.41 % 2017-01-01
416 uphan 15.96 % ** 1.41 % 2017-01-01
417 Cmarq2k2 15.96 % ** 1.41 % 2017-01-01
418 ReverendHerc 15.96 % ** 1.41 % 2017-01-01
419 antauz 15.96 % ** 1.41 % 2017-01-01
420 horseman 15.96 % ** 1.41 % 2017-01-01
421 SPUR 15.96 % ** 1.41 % 2017-01-01
422 uscs344 15.96 % ** 1.41 % 2017-01-01
423 1953greg 15.96 % ** 1.41 % 2017-01-01
424 5hundy 15.96 % ** 1.41 % 2017-01-01
425 accountant02130 15.96 % ** 1.41 % 2017-01-01
426 albwrong 15.96 % ** 1.41 % 2017-01-01
427 andercee 15.96 % ** 1.41 % 2017-01-01
428 Asylum 15.96 % ** 1.41 % 2017-01-01
429 barb41048 15.96 % ** 1.41 % 2017-01-01
430 BichonFreeze 15.96 % ** 1.41 % 2017-01-01
431 bigcat61 15.96 % ** 1.41 % 2017-01-01
432 bobmarley753 15.96 % ** 1.41 % 2017-01-01
433 BP171 15.96 % ** 1.41 % 2017-01-01
434 Bravos_Time! 15.96 % ** 1.41 % 2017-01-01
435 bucket 15.96 % ** 1.41 % 2017-01-01
436 ccharsh22 15.96 % ** 1.41 % 2017-01-01
437 Dalz 15.96 % ** 1.41 % 2017-01-01
438 Dartman 15.96 % ** 1.41 % 2017-01-01
439 delldell 15.96 % ** 1.41 % 2017-01-01
440 dojdave 15.96 % ** 1.41 % 2017-01-01
441 DonKeyhote 15.96 % ** 1.41 % 2017-01-01
442 Dsots 15.96 % ** 1.41 % 2017-01-01
443 elinca 15.96 % ** 1.41 % 2017-01-01
444 engr_villa 15.96 % ** 1.41 % 2017-01-01
445 ericwinn 15.96 % ** 1.41 % 2017-01-01
446 FISHHEADS 15.96 % ** 1.41 % 2017-01-01
447 flipman 15.96 % ** 1.41 % 2017-01-01
448 gagobutos 15.96 % ** 1.41 % 2017-01-01
449 gdraft 15.96 % ** 1.41 % 2017-01-01
450 hardyandtiny 15.96 % ** 1.41 % 2017-01-01
Rank Username YTD Returns MTD Returns Start Date
451 Howanic 15.96 % ** 1.41 % 2017-01-01
452 Jagman26 15.96 % ** 1.41 % 2017-01-01
453 Jaygoots 15.96 % ** 1.41 % 2017-01-01
454 Jimmys_Girl 15.96 % ** 1.41 % 2017-01-01
455 Kylee 15.96 % ** 1.41 % 2017-01-01
456 ldrltjg 15.96 % ** 1.41 % 2017-01-01
457 lestampoc 15.96 % ** 1.41 % 2017-01-01
458 liquidh2o 15.96 % ** 1.41 % 2017-01-01
459 Magic 15.96 % ** 1.41 % 2017-01-01
460 marcusg 15.96 % ** 1.41 % 2017-01-01
461 martypantsss 15.96 % ** 1.41 % 2017-01-01
462 mikrodojr 15.96 % ** 1.41 % 2017-01-01
463 minhan_1408 15.96 % ** 1.41 % 2017-01-01
464 mrfishing 15.96 % ** 1.41 % 2017-01-01
465 Mr_Mojo_Rising 15.96 % ** 1.41 % 2017-01-01
466 mustbev 15.96 % ** 1.41 % 2017-01-01
467 NationalGuard 15.96 % ** 1.41 % 2017-01-01
468 navgod34 15.96 % ** 1.41 % 2017-01-01
469 Newbie 15.96 % ** 1.41 % 2017-01-01
470 nnewman 15.96 % ** 1.41 % 2017-01-01
471 pops 15.96 % ** 1.41 % 2017-01-01
472 pwagner3md 15.96 % ** 1.41 % 2017-01-01
473 rabbithimself 15.96 % ** 1.41 % 2017-01-01
474 Revanshill 15.96 % ** 1.41 % 2017-01-01
475 Rifleman 15.96 % ** 1.41 % 2017-01-01
476 rwmiller50 15.96 % ** 1.41 % 2017-01-01
477 sball.ca 15.96 % ** 1.41 % 2017-01-01
478 SeaOtter 15.96 % ** 1.41 % 2017-01-01
479 shelby642 15.96 % ** 1.41 % 2017-01-01
480 shoeboxgorilla 15.96 % ** 1.41 % 2017-01-01
481 skbn 15.96 % ** 1.41 % 2017-01-01
482 Snake1b4 15.96 % ** 1.41 % 2017-01-01
483 SPANK550 15.96 % ** 1.41 % 2017-01-01
484 SR101 15.96 % ** 1.41 % 2017-01-01
485 TaillightMafia 15.96 % ** 1.41 % 2017-01-01
486 taronsr 15.96 % ** 1.41 % 2017-01-01
487 tekpc2k2 15.96 % ** 1.41 % 2017-01-01
488 theScientist 15.96 % ** 1.41 % 2017-01-01
489 tlmathe 15.96 % ** 1.41 % 2017-01-01
490 trwill7172 15.96 % ** 1.41 % 2017-01-01
491 victoria 15.96 % ** 1.41 % 2017-01-01
492 vintage53 15.96 % ** 1.41 % 2017-01-01
493 wolfpup77 15.96 % ** 1.41 % 2017-01-01
494 Wulfie 15.96 % ** 1.41 % 2017-01-01
495 wsureshoot 15.96 % ** 1.41 % 2017-01-01
496 drewcifer 15.96 % ** 1.41 % 2017-01-01
497 snwbrdr397 15.96 % ** 1.41 % 2017-01-01
498 Handballer 15.96 % ** 1.41 % 2017-01-01
499 Steelhead 15.96 % ** 1.41 % 2017-01-01
500 wddolson 15.96 % ** 1.41 % 2017-01-01
Rank Username YTD Returns MTD Returns Start Date
501 DetroitLifer 15.96 % ** 1.41 % 2017-01-01
502 Crackon 15.96 % ** 1.41 % 2017-01-01
503 LMBF_Method 15.96 % ** 1.41 % 2017-01-01
504 mdearman 15.89 % ** 0.89 % 2017-01-01
505 PublicServant * 15.81 % ** 0.99 % 2017-02-01
506 funkyhunky 15.79 % ** 1.03 % 2017-01-01
507 TXTornados 15.73 % 0.86 % 2017-01-01
508 babydux 15.70 % ** 1.41 % 2017-01-01
509 lmbebo 15.69 % ** 0.96 % 2017-01-01
510 tkd1982 15.67 % ** 0.96 % 2017-01-01
511 sigj 15.62 % ** 1.41 % 2017-01-01
512 Jane 15.59 % 1.04 % 2017-01-01
513 sjcook23 15.58 % 0.96 % 2017-01-01
514 lsutiger1985 15.55 % ** 1.15 % 2017-01-01
515 jerzystang 15.54 % ** 0.84 % 2017-01-01
516 saxman 15.52 % ** 1.03 % 2017-01-01
517 adam 15.50 % 0.84 % 2017-01-01
518 redcard 15.50 % ** 0.88 % 2017-01-01
519 Richman52 * 15.48 % ** 0.91 % 2017-01-27
520 SICK2MYSTOMACH 15.47 % 2.35 % 2017-01-01
521 Supernova2033 15.41 % 0.83 % 2017-01-01
522 sparty83 15.36 % ** 0.94 % 2017-01-01
523 ROCKMAXX 15.34 % 0.85 % 2017-01-01
524 ArchAngel 15.29 % ** 1.03 % 2017-01-01
525 KRSSDSU 15.28 % 0.96 % 2017-01-01
526 endoskell 15.28 % ** 1.14 % 2017-01-01
527 SPOT_LT 15.27 % 1.41 % 2017-01-01
528 goose 15.26 % 2.39 % 2017-01-01
529 eddie3375 15.25 % ** 1.03 % 2017-01-01
530 cbp03 15.25 % ** 1.07 % 2017-01-01
531 Beacher1 15.23 % 1.41 % 2017-01-01
532 oOSupremeOo 15.22 % ** 1.18 % 2017-01-01
533 Markster70 15.21 % 1.01 % 2017-01-01
534 Sign_Stealer 15.21 % 1.41 % 2017-01-01
535 kemphrunner 15.19 % ** 1.20 % 2017-01-01
536 TDStrange 15.17 % 0.72 % 2017-01-01
537 MRJ 15.15 % 1.69 % 2017-01-01
538 ejholt 15.12 % ** 1.22 % 2017-01-01
539 playboy 15.10 % ** 0.88 % 2017-01-01
540 Calicat69 15.10 % ** 0.79 % 2017-01-01
541 Cruser 15.07 % 2.19 % 2017-01-01
542 slakker97 15.07 % ** 0.98 % 2017-01-01
543 Mustangmoose302 15.04 % 0.45 % 2017-01-01
544 FedSince2009 14.99 % ** 0.74 % 2017-01-01
545 beachfront * 14.98 % ** 1.22 % 2017-01-30
546 Aviator_Guy 14.97 % 0.40 % 2017-01-01
547 ShadowHawk 14.97 % 1.41 % 2017-01-01
548 ChessGuy 14.95 % 0.89 % 2017-01-01
549 dave 14.94 % ** 1.03 % 2017-01-01
550 franky 14.94 % ** 1.41 % 2017-01-01
Rank Username YTD Returns MTD Returns Start Date
551 flyoa1 14.93 % 0.27 % 2017-01-01
552 txfan 14.90 % ** 1.22 % 2017-01-01
553 GenStar 14.87 % 0.95 % 2017-01-01
554 riptide17 14.79 % 2.73 % 2017-01-01
555 denbo 14.76 % 1.94 % 2017-01-01
556 justbidinmytime 14.76 % ** 0.76 % 2017-01-01
557 boilerman 14.73 % 1.41 % 2017-01-01
558 ldm1958 14.73 % ** 0.83 % 2017-01-01
559 Tamjay74 14.72 % ** 1.25 % 2017-01-01
560 TraderJane 14.71 % ** 1.03 % 2017-01-01
561 puddy 14.68 % 0.91 % 2017-01-01
562 LMBF1_C>S 14.67 % 1.41 % 2017-01-01
563 bdmkg 14.64 % 0.86 % 2017-01-01
564 ferretgrl 14.63 % ** 1.06 % 2017-01-01
565 mikeginva 14.63 % ** 1.06 % 2017-01-01
566 Jason.Z 14.62 % 1.41 % 2017-01-01
567 Weather_n_Leather 14.62 % ** 0.81 % 2017-01-01
568 BGBassLady64 14.59 % 0.83 % 2017-01-01
569 Mercy 14.59 % ** 0.70 % 2017-01-01
570 DaBears17 14.56 % ** 1.41 % 2017-01-01
571 moneymikem 14.50 % 1.41 % 2017-01-01
572 DC2scott * 14.50 % ** 1.33 % 2017-01-30
573 TheGizz 14.50 % ** 0.76 % 2017-01-01
574 redman2222 14.49 % ** 0.56 % 2017-01-01
575 LMBF1_Day 14.46 % 1.03 % 2017-01-01
576 Jaybird79 14.45 % ** 1.04 % 2017-01-01
577 L2040 14.44 % 0.69 % 2017-01-01
578 soupygirl 14.44 % ** 0.69 % 2017-01-01
579 Salmon365 14.44 % ** 0.69 % 2017-01-01
580 soam24 14.44 % ** 0.69 % 2017-01-01
581 Castronaut 14.44 % ** 0.69 % 2017-01-01
582 Forcefed 14.44 % ** 0.69 % 2017-01-01
583 GOVOLS 14.44 % ** 0.69 % 2017-01-01
584 soupydog 14.44 % ** 0.69 % 2017-01-01
585 Tvenos 14.44 % ** 0.69 % 2017-01-01
586 Shakenbake * 14.41 % 1.74 % 2017-01-11
587 Sensei 14.39 % 0.27 % 2017-01-01
588 lartra 14.38 % 0.86 % 2017-01-01
589 geargirl 14.37 % 1.22 % 2017-01-01
590 Riverman62 14.30 % ** 0.68 % 2017-01-01
591 cletuss * 14.29 % 0.31 % 2017-04-06
592 Pickles 14.27 % 0.12 % 2017-01-01
593 Jetpowered78 14.27 % ** 1.08 % 2017-01-01
594 u.s.dan 14.26 % ** 0.76 % 2017-01-01
595 paperbitch 14.25 % ** 1.24 % 2017-01-01
596 Trapperpaul 14.24 % ** 0.55 % 2017-01-01
597 cfwcfw 14.24 % ** 1.04 % 2017-01-01
598 40calSue 14.23 % 0.49 % 2017-01-01
599 SKIPPER 14.20 % 1.04 % 2017-01-01
600 joewashdc 14.19 % ** 0.70 % 2017-01-01
Rank Username YTD Returns MTD Returns Start Date
601 pread 14.18 % ** 1.41 % 2017-01-01
602 kujayhawk69 14.16 % ** 0.59 % 2017-01-01
603 Benny7563 14.14 % 0.40 % 2017-01-01
604 Inertia 14.13 % ** 0.55 % 2017-01-01
605 galaxy101 14.12 % 0.76 % 2017-01-01
606 jpwmasters * 14.12 % ** 0.31 % 2017-03-20
607 resurgemus 14.11 % 0.64 % 2017-01-01
608 gk10128 14.10 % 1.09 % 2017-01-01
609 scrsvs 14.10 % 2.89 % 2017-01-01
610 Sad_Al 14.07 % 2.30 % 2017-01-01
611 RX-7 14.07 % 1.22 % 2017-01-01
612 ILoveTDs 14.05 % ** 0.87 % 2017-01-01
613 tdekens * 14.02 % ** 1.22 % 2017-02-06
614 k9lowe 14.02 % ** 0.67 % 2017-01-01
615 1Mech 14.00 % 0.60 % 2017-01-01
616 flg22 13.99 % ** 1.03 % 2017-01-01
617 Carwin 13.98 % 1.47 % 2017-01-01
618 marshad_786 13.98 % 0.63 % 2017-01-01
619 Skooby 13.91 % ** 0.45 % 2017-01-01
620 EricDeLee 13.89 % 0.66 % 2017-01-01
621 ward5820 13.88 % 0.59 % 2017-01-01
622 93GT 13.86 % 0.88 % 2017-01-01
623 asuasylum 13.85 % 0.49 % 2017-01-01
624 jerodt 13.85 % ** 0.67 % 2017-01-01
625 tazzymt 13.84 % 1.06 % 2017-01-01
626 kraplrak 13.82 % 1.22 % 2017-01-01
627 Chorizo * 13.80 % 0.91 % 2017-01-09
628 rothnroll 13.79 % 0.67 % 2017-01-01
629 yanni123 13.76 % ** 0.75 % 2017-01-01
630 Robin_hood 13.75 % ** 0.14 % 2017-01-01
631 riverdestiny 13.73 % ** 1.14 % 2017-01-01
632 NSLADL2 13.72 % ** 1.08 % 2017-01-01
633 codezero 13.71 % ** 0.87 % 2017-01-01
634 rbizz 13.70 % ** 0.31 % 2017-01-01
635 rchurchwell 13.62 % ** 1.41 % 2017-01-01
636 badeye28 13.59 % 0.85 % 2017-01-01
637 scaltagi 13.57 % ** 0.94 % 2017-01-01
638 hotelyankee16 * 13.51 % ** 1.41 % 2017-01-31
639 joehacker 13.50 % -0.29 % 2017-01-01
640 Boghie 13.50 % 0.85 % 2017-01-01
641 Bball 13.49 % ** 0.55 % 2017-01-01
642 argyle64 13.45 % 0.95 % 2017-01-01
643 Boxholder 13.44 % 0.27 % 2017-01-01
644 Jello 13.44 % 1.41 % 2017-01-01
645 DaddyTin 13.42 % ** 1.41 % 2017-01-01
646 thickage * 13.42 % ** 0.99 % 2017-01-25
647 StockSurfer 13.41 % 0.49 % 2017-01-01
648 czapor1967 13.38 % ** 0.31 % 2017-01-01
649 soupyBeard 13.36 % ** 0.92 % 2017-01-01
650 arrow_point 13.34 % 1.41 % 2017-01-01
Rank Username YTD Returns MTD Returns Start Date
651 lilbob 13.34 % ** 0.58 % 2017-01-01
652 poi9 13.32 % 1.22 % 2017-01-01
653 mallardman89 13.32 % ** 0.80 % 2017-01-01
654 TURNIPSEED 13.31 % 0.93 % 2017-01-01
655 sierrabravo11 * 13.31 % ** 1.41 % 2017-01-27
656 Carpatc 13.31 % ** 1.05 % 2017-01-01
657 pwclantdiv 13.26 % ** 0.62 % 2017-01-01
658 mcash 13.25 % ** 0.69 % 2017-01-01
659 Wildwoman 13.18 % 0.69 % 2017-01-01
660 tm85 13.18 % ** 0.72 % 2017-01-01
661 mathewsz7 * 13.10 % ** 0.45 % 2017-03-06
662 cvlsvt 13.08 % ** 0.68 % 2017-01-01
663 Cash_Money 13.07 % 0.58 % 2017-01-01
664 trudger 13.04 % 0.53 % 2017-01-01
665 hosscube 13.04 % ** 0.96 % 2017-01-01
666 les2l8 13.02 % -0.30 % 2017-01-01
667 OhioOkie 13.01 % 1.04 % 2017-01-01
668 CapeChem 12.96 % 0.62 % 2017-01-01
669 bkc2a 12.95 % 1.92 % 2017-01-01
670 tjdorrie 12.94 % ** 0.70 % 2017-01-01
671 Striken7 12.93 % ** 0.95 % 2017-01-01
672 pinion 12.92 % ** 0.73 % 2017-01-01
673 Humberson * 12.92 % ** 1.22 % 2017-03-21
674 towncop1978 12.91 % ** 0.14 % 2017-01-01
675 bighurd51 12.91 % ** 1.41 % 2017-01-01
676 ken863 12.88 % ** 0.16 % 2017-01-01
677 mikepop 12.85 % ** 0.21 % 2017-01-01
678 malyla 12.83 % ** 0.27 % 2017-01-01
679 fedgolfer 12.81 % 1.25 % 2017-01-01
680 pjsstuff71 12.80 % 0.85 % 2017-01-01
681 Shamus13 12.78 % -0.08 % 2017-01-01
682 Kaufmanrider 12.78 % ** 0.57 % 2017-01-01
683 Phil46 12.76 % 0.63 % 2017-01-01
684 bjean 12.73 % 0.89 % 2017-01-01
685 eshore07 12.71 % -0.14 % 2017-01-01
686 catak 12.68 % ** 0.72 % 2017-01-01
687 wevodau 12.67 % ** 1.41 % 2017-01-01
688 razor * 12.66 % ** 1.22 % 2017-03-27
689 CTV49 * 12.66 % ** 1.22 % 2017-03-23
690 biomedrick 12.65 % ** 0.42 % 2017-01-01
691 Jayeks 12.61 % 0.87 % 2017-01-01
692 Mlbplayer86 * 12.61 % ** 0.80 % 2017-01-17
693 20%_each 12.60 % 0.67 % 2017-01-01
694 CDooge 12.60 % ** 0.67 % 2017-01-01
695 Rube 12.60 % ** 0.67 % 2017-01-01
696 msm24 12.60 % ** 0.67 % 2017-01-01
697 ryencsik 12.59 % ** 0.94 % 2017-01-01
698 thinkman 12.58 % 1.69 % 2017-01-01
699 GonzoJK 12.57 % ** 0.14 % 2017-01-01
700 paymetoplay * 12.57 % ** 1.41 % 2017-01-26
Rank Username YTD Returns MTD Returns Start Date
701 DudeWayne 12.55 % ** 0.94 % 2017-01-01
702 weather 12.55 % ** 0.60 % 2017-01-01
703 L2030 12.55 % 0.60 % 2017-01-01
704 LeCouchonDingue 12.55 % ** 0.60 % 2017-01-01
705 DrScooter 12.55 % ** 0.60 % 2017-01-01
706 marka1620 12.55 % ** 0.60 % 2017-01-01
707 pathalford 12.55 % ** 0.60 % 2017-01-01
708 iyoung 12.54 % 0.65 % 2017-01-01
709 USMC6056 * 12.51 % ** 0.85 % 2017-03-31
710 peterson82 12.50 % 1.41 % 2017-01-01
711 jasonlwright 12.50 % ** 0.92 % 2017-01-01
712 canisdog 12.48 % ** 0.67 % 2017-01-01
713 fran1775 12.47 % ** 1.22 % 2017-01-01
714 doge1976 12.45 % 2.37 % 2017-01-01
715 NewBlackShirt 12.44 % ** 1.41 % 2017-01-01
716 Booster 12.39 % 1.41 % 2017-01-01
717 scsiguru 12.37 % ** 0.62 % 2017-01-01
718 Sam_5_0 * 12.34 % 0.99 % 2017-01-27
719 Towanda 12.33 % ** 0.87 % 2017-01-01
720 mrmaxd 12.33 % ** 0.23 % 2017-01-01
721 Captcaveman 12.32 % 1.04 % 2017-01-01
722 Elktracker 12.31 % 0.13 % 2017-01-01
723 phlames 12.26 % 1.03 % 2017-01-01
724 dialing4dollars 12.25 % ** 1.41 % 2017-01-01
725 FatMan 12.24 % 1.41 % 2017-01-01
726 MakeItRain 12.19 % 0.22 % 2017-01-01
727 olddb * 12.19 % ** 1.37 % 2017-01-04
728 arhodie 12.16 % 0.65 % 2017-01-01
729 EarlyRTr 12.12 % 1.62 % 2017-01-01
730 IWTC 12.10 % ** 0.83 % 2017-01-01
731 VANILLAICE * 12.09 % 1.41 % 2017-03-28
732 Turg * 12.07 % ** 1.41 % 2017-02-15
733 cholondo 12.06 % ** 0.75 % 2017-01-01
734 philcam 12.02 % 1.41 % 2017-01-01
735 catsathome 11.96 % 0.31 % 2017-01-01
736 silver2828 11.93 % 0.06 % 2017-01-01
737 JOSE123 11.93 % ** 0.23 % 2017-01-01
738 sanfran814 * 11.85 % ** 0.31 % 2017-01-05
739 indgilbert 11.82 % 1.58 % 2017-01-01
740 Mustang2008 * 11.82 % 1.37 % 2017-01-09
741 Ducksrule 11.78 % 2.47 % 2017-01-01
742 gatoremt * 11.78 % ** 0.95 % 2017-03-03
743 lkatme 11.74 % ** 0.67 % 2017-01-01
744 Dorado 11.69 % 0.91 % 2017-01-01
745 Emcd14 11.65 % ** 0.86 % 2017-01-01
746 Shirt357 * 11.64 % 0.87 % 2017-03-24
747 BArREttLEEMAKINIT 11.56 % 0.41 % 2017-01-01
748 Bobcat777 * 11.56 % 0.14 % 2017-03-07
749 NavyGirl88 11.54 % 0.24 % 2017-01-01
750 Spinks * 11.52 % 1.11 % 2017-03-29
Rank Username YTD Returns MTD Returns Start Date
751 FedUpFed 11.48 % 0.86 % 2017-01-01
752 parkbrau 11.48 % ** 0.58 % 2017-01-01
753 2manyirons 11.42 % ** 1.41 % 2017-01-01
754 roxiemoron 11.41 % ** 1.22 % 2017-01-01
755 ravensfan 11.40 % 1.19 % 2017-01-01
756 42RL * 11.39 % ** 1.03 % 2017-04-03
757 mikekellyonline * 11.38 % 1.03 % 2017-05-17
758 2Plus 11.37 % 0.26 % 2017-01-01
759 bayou4cj 11.33 % ** 0.76 % 2017-01-01
760 Totohydra 11.29 % 0.67 % 2017-01-01
761 rgncajun68 11.27 % 0.73 % 2017-01-01
762 nugget * 11.27 % ** 1.03 % 2017-03-14
763 rangerray 11.23 % 1.03 % 2017-01-01
764 Cathy57 11.22 % 1.22 % 2017-01-01
765 lsrodgers 11.22 % ** 0.61 % 2017-01-01
766 Class 11.21 % ** 0.14 % 2017-01-01
767 SummerLove * 11.20 % ** 0.88 % 2017-04-04
768 TMUFR 11.19 % 0.29 % 2017-01-01
769 Hamhocs 11.18 % 1.06 % 2017-01-01
770 SCHAGAN 11.16 % 0.31 % 2017-01-01
771 Nadeem 11.16 % 1.41 % 2017-01-01
772 Brinky 11.15 % 0.14 % 2017-01-01
773 kamisu * 11.15 % ** 1.41 % 2017-02-22
774 Kentucky 11.14 % 0.64 % 2017-01-01
775 jeffmelendez * 11.14 % ** 1.22 % 2017-02-28
776 Bdiddy74 11.12 % 1.12 % 2017-01-01
777 BigJohn 11.12 % ** 0.14 % 2017-01-01
778 BorderBlade 11.11 % 1.46 % 2017-01-01
779 kevmanfoo 11.11 % ** 0.96 % 2017-01-01
780 Scrappy 11.07 % 0.11 % 2017-01-01
781 MrBowl 11.00 % 2.32 % 2017-01-01
782 mickeyelk 11.00 % 1.41 % 2017-01-01
783 Skorcher 10.99 % 1.03 % 2017-01-01
784 hemi2020 * 10.99 % ** 1.41 % 2017-02-13
785 MrJohnRoss 10.97 % ** 0.31 % 2017-01-01
786 Cactus 10.94 % 1.41 % 2017-01-01
787 nanamoma 10.92 % 1.32 % 2017-01-01
788 Bighorn6 10.91 % ** 0.14 % 2017-01-01
789 Bender 10.90 % 0.66 % 2017-01-01
790 confusedcookie 10.85 % ** 1.03 % 2017-01-01
791 Kevindraws53 10.83 % ** 0.80 % 2017-01-01
792 phxmrc 10.80 % 1.28 % 2017-01-01
793 lpac 10.76 % ** 0.23 % 2017-01-01
794 Renoir 10.75 % ** 0.66 % 2017-01-01
795 ccbadc 10.74 % ** 1.41 % 2017-01-01
796 LMBF1-CI>S 10.70 % 1.41 % 2017-01-01
797 postalmatt 10.68 % 0.64 % 2017-01-01
798 hotwings 10.66 % 0.64 % 2017-01-01
799 coop65 10.60 % 0.89 % 2017-01-01
800 Roddhsi 10.59 % 0.47 % 2017-01-01
Rank Username YTD Returns MTD Returns Start Date
801 londi1tagaholy 10.58 % ** 0.64 % 2017-01-01
802 Mongos * 10.56 % ** 0.81 % 2017-03-30
803 felixthecat 10.53 % 0.14 % 2017-01-01
804 wwiggin2002 10.49 % 2.44 % 2017-01-01
805 Scraps 10.48 % 0.01 % 2017-01-01
806 cenno 10.44 % ** 1.03 % 2017-01-01
807 Richard_Todd 10.40 % 1.45 % 2017-01-01
808 Whipsaw 10.39 % 1.08 % 2017-01-01
809 evilanne 10.38 % 1.30 % 2017-01-01
810 ravenstreasures 10.35 % ** 0.77 % 2017-01-01
811 sdhoag13 10.28 % 0.45 % 2017-01-01
812 fossilbird 10.25 % ** 0.63 % 2017-01-01
813 Nightrain * 10.20 % ** 0.76 % 2017-03-20
814 homieg24 10.18 % 0.75 % 2017-01-01
815 bjohnson12 10.18 % ** 0.27 % 2017-01-01
816 arodiaz 10.15 % ** 0.54 % 2017-01-01
817 Volfan 10.14 % 0.44 % 2017-01-01
818 LMBF1_SIM 10.14 % 1.03 % 2017-01-01
819 MoneyTalks 10.13 % -0.80 % 2017-01-01
820 Pmnick114 10.08 % ** 0.58 % 2017-01-01
821 3days 10.07 % 0.01 % 2017-01-01
822 coastalite 10.06 % ** 1.02 % 2017-01-01
823 TLeo96 10.04 % ** 0.69 % 2017-01-01
824 PTSarge 10.04 % ** 0.63 % 2017-01-01
825 dirtboy27 10.03 % ** 0.14 % 2017-01-01
826 neptune 10.01 % -0.43 % 2017-01-01
827 rich1 9.97 % ** 0.88 % 2017-01-01
828 aeroconfigs 9.96 % 1.41 % 2017-01-01
829 HollywoodNY 9.94 % ** 0.53 % 2017-01-01
830 StockTater 9.93 % ** 0.90 % 2017-01-01
831 dsnidernurse 9.90 % ** 0.74 % 2017-01-01
832 Pwsimmons 9.88 % ** 0.89 % 2017-01-01
833 lettsj * 9.88 % ** 1.41 % 2017-02-22
834 Luckycat 9.88 % ** 0.74 % 2017-01-01
835 tspintel 9.86 % ** 0.14 % 2017-01-01
836 RSJones * 9.83 % 0.86 % 2017-03-08
837 ezcomeezgo 9.82 % 0.74 % 2017-01-01
838 timingbill 9.82 % ** 0.88 % 2017-01-01
839 14ers 9.81 % ** 0.89 % 2017-01-01
840 1965Vintage * 9.78 % 1.03 % 2017-01-19
841 Timberwoof 9.76 % 0.72 % 2017-01-01
842 FireGal 9.75 % 0.84 % 2017-01-01
843 Greg 9.75 % ** 1.04 % 2017-01-01
844 coinmanjack 9.73 % ** 0.50 % 2017-01-01
845 SteelSaving 9.71 % 0.33 % 2017-01-01
846 JAFI 9.71 % ** 0.62 % 2017-01-01
847 wayne622 * 9.68 % 0.89 % 2017-01-31
848 rjperry * 9.68 % ** 0.94 % 2017-05-09
849 Rummy1958 9.67 % 0.31 % 2017-01-01
850 bhep * 9.63 % ** 1.41 % 2017-01-05
Rank Username YTD Returns MTD Returns Start Date
851 kathy73 9.58 % -0.34 % 2017-01-01
852 gos3319 9.57 % ** 0.86 % 2017-01-01
853 tataberto 9.55 % 0.74 % 2017-01-01
854 magellan * 9.53 % ** 0.55 % 2017-04-03
855 RushSlowly 9.49 % 0.14 % 2017-01-01
856 seajpalm * 9.49 % 1.12 % 2017-05-15
857 JMoody 9.49 % 1.04 % 2017-01-01
858 domino11 9.47 % ** 0.86 % 2017-01-01
859 ilduce * 9.46 % ** 1.32 % 2017-06-27
860 Risky1 9.36 % ** 0.54 % 2017-01-01
861 Risky11 9.36 % ** 0.54 % 2017-01-01
862 BIGfRED 9.31 % ** 0.63 % 2017-01-01
863 Medic72 9.30 % ** 0.51 % 2017-01-01
864 batman 9.29 % ** 0.45 % 2017-01-01
865 Rogue 9.26 % 0.62 % 2017-01-01
866 J-Trader 9.26 % ** 0.14 % 2017-01-01
867 12squared 9.24 % 1.45 % 2017-01-01
868 GoNoles 9.23 % ** 0.83 % 2017-01-01
869 nightman 9.21 % -0.31 % 2017-01-01
870 skeeter 9.20 % 0.67 % 2017-01-01
871 alexkoonce 9.20 % ** 0.72 % 2017-01-01
872 Rico69 9.16 % 0.31 % 2017-01-01
873 ssdave 9.15 % ** 0.14 % 2017-01-01
874 razorbckx 9.14 % ** 0.47 % 2017-01-01
875 sean101 9.09 % 0.71 % 2017-01-01
876 JaBlack 9.04 % 1.15 % 2017-01-01
877 UWQLI * 9.01 % ** 0.58 % 2017-02-17
878 pamkk 8.94 % 0.70 % 2017-01-01
879 TradingJoe 8.93 % 0.68 % 2017-01-01
880 c130 8.92 % 2.37 % 2017-01-01
881 MacDaddy 8.92 % 1.41 % 2017-01-01
882 whitmoresl * 8.92 % ** 0.92 % 2017-05-11
883 MaxPowers 8.90 % 0.65 % 2017-01-01
884 Tsunami 8.89 % 0.85 % 2017-01-01
885 barnowlet 8.89 % 0.99 % 2017-01-01
886 Lynx 8.88 % 1.88 % 2017-01-01
887 ChuckH 8.85 % ** 0.27 % 2017-01-01
888 insocova 8.80 % 0.14 % 2017-01-01
889 Bfejeran 8.75 % ** 0.27 % 2017-01-01
890 crhuss 8.75 % ** 0.66 % 2017-01-01
891 bikeboyjoe 8.74 % ** 0.45 % 2017-01-01
892 adamo 8.70 % 0.55 % 2017-01-01
893 buck1623 * 8.68 % ** 0.86 % 2017-05-30
894 murph 8.67 % 0.68 % 2017-01-01
895 kras 8.66 % 1.31 % 2017-01-01
896 soon2retire 8.64 % ** 0.46 % 2017-01-01
897 L2020 8.61 % 0.42 % 2017-01-01
898 KevinD 8.61 % ** 0.42 % 2017-01-01
899 wornout 8.61 % ** 0.42 % 2017-01-01
900 derosafj 8.61 % ** 0.42 % 2017-01-01
Rank Username YTD Returns MTD Returns Start Date
901 dpardue 8.61 % ** 0.42 % 2017-01-01
902 spapadopoulos 8.57 % ** 0.14 % 2017-01-01
903 cpowith4 8.53 % -0.04 % 2017-01-01
904 raiderddj 8.50 % 0.14 % 2017-01-01
905 Roymac28 8.46 % ** 0.72 % 2017-01-01
906 crommie 8.45 % -0.39 % 2017-01-01
907 merlin 8.44 % ** 0.63 % 2017-01-01
908 tucotsp 8.43 % 0.88 % 2017-01-01
909 bailemi 8.42 % ** 0.27 % 2017-01-01
910 Rundp 8.37 % ** 0.63 % 2017-01-01
911 LongShot 8.31 % 0.98 % 2017-01-01
912 EWB! 8.28 % 1.06 % 2017-01-01
913 jarhed0689 * 8.26 % 0.31 % 2017-02-22
914 sgtbriangreen 8.24 % 0.61 % 2017-01-01
915 BillD 8.22 % ** 0.55 % 2017-01-01
916 Skorp64 8.19 % 0.84 % 2017-01-01
917 loco_lobo 8.18 % 0.27 % 2017-01-01
918 FireWeatherMet 8.17 % -0.01 % 2017-01-01
919 Bluewing00 8.15 % 0.66 % 2017-01-01
920 Maine-i-ac 8.15 % 0.60 % 2017-01-01
921 brobin10 8.13 % 1.03 % 2017-01-01
922 Gypsy55 8.05 % 1.14 % 2017-01-01
923 Klear 8.03 % 0.38 % 2017-01-01
924 bmthomas0222 8.03 % ** 0.59 % 2017-01-01
925 lucy 7.97 % 0.69 % 2017-01-01
926 amuraider 7.95 % ** 0.50 % 2017-01-01
927 netforcer 7.94 % 0.15 % 2017-01-01
928 fick 7.93 % 0.60 % 2017-01-01
929 Nordic 7.91 % 0.14 % 2017-01-01
930 NotReally! 7.91 % ** 0.31 % 2017-01-01
931 nightsters 7.85 % 1.32 % 2017-01-01
932 REDNECK 7.85 % ** 0.59 % 2017-01-01
933 Sonic 7.83 % 1.26 % 2017-01-01
934 Lester130 7.76 % 0.17 % 2017-01-01
935 DistributionKiller 7.76 % ** 0.14 % 2017-01-01
936 rookiecsi 7.68 % ** 0.14 % 2017-01-01
937 tton 7.65 % 0.14 % 2017-01-01
938 KinoFish * 7.65 % ** 0.27 % 2017-01-05
939 Sippeeboy 7.63 % 0.93 % 2017-01-01
940 Becky * 7.62 % 0.83 % 2017-05-24
941 korekaza 7.62 % 1.41 % 2017-01-01
942 Snakebite 7.60 % 1.18 % 2017-01-01
943 FishSqueezer 7.59 % 0.61 % 2017-01-01
944 Clue 7.58 % 0.08 % 2017-01-01
945 skshunterb * 7.58 % 0.31 % 2017-07-05
946 yeot 7.56 % 0.42 % 2017-01-01
947 Badgers69 7.53 % 0.14 % 2017-01-01
948 Viva_La_Migra 7.51 % ** 0.14 % 2017-01-01
949 maui21ice 7.50 % 1.03 % 2017-01-01
950 DreamboatAnnie 7.47 % 0.78 % 2017-01-01
Rank Username YTD Returns MTD Returns Start Date
951 boricua 7.40 % 0.90 % 2017-01-01
952 CadMeUm 7.40 % 0.82 % 2017-01-01
953 Mauser 7.39 % ** 0.14 % 2017-01-01
954 zegerst 7.39 % ** 0.23 % 2017-01-01
955 thewingreaper 7.38 % 0.31 % 2017-01-01
956 talking2jets 7.37 % ** 0.27 % 2017-01-01
957 clester 7.37 % ** 0.14 % 2017-01-01
958 ztlmike 7.36 % 0.82 % 2017-01-01
959 Britts4life 7.32 % 0.31 % 2017-01-01
960 mschewy 7.31 % 0.29 % 2017-01-01
961 daze823 7.24 % 0.36 % 2017-01-01
962 cowboyaug4 7.21 % ** 0.14 % 2017-01-01
963 CrgButcher 7.19 % -0.74 % 2017-01-01
964 jpatriarca 7.17 % ** 0.41 % 2017-01-01
965 Christopher 7.15 % -0.13 % 2017-01-01
966 TKMike 7.15 % 0.59 % 2017-01-01
967 kstephen * 7.06 % 0.86 % 2017-03-10
968 jsdiven * 7.04 % -0.13 % 2017-03-17
969 baldhippie 7.04 % 0.49 % 2017-01-01
970 texaggies89 7.04 % ** 0.14 % 2017-01-01
971 ArkHills 7.00 % ** 0.30 % 2017-01-01
972 dwwright3rd 6.99 % ** 0.70 % 2017-01-01
973 olddog 6.98 % 0.68 % 2017-01-01
974 walldog * 6.94 % 0.05 % 2017-06-15
975 mtstricker 6.94 % ** 0.53 % 2017-01-01
976 raymonster * 6.90 % ** 1.25 % 2017-08-08
977 Erie 6.89 % 0.85 % 2017-01-01
978 RobinHood 6.85 % 1.51 % 2017-01-01
979 2Funds 6.78 % 0.84 % 2017-01-01
980 bullsheet 6.76 % ** 0.60 % 2017-01-01
981 spgenius 6.74 % 0.90 % 2017-01-01
982 rayald 6.73 % ** 0.14 % 2017-01-01
983 bones605 6.71 % ** 0.30 % 2017-01-01
984 IndianaJones 6.65 % 0.33 % 2017-01-01
985 mellowmoon 6.64 % 0.14 % 2017-01-01
986 TSP4Soccer 6.63 % ** 0.57 % 2017-01-01
987 Rainmaker44 6.62 % 0.30 % 2017-01-01
988 frostybosty 6.60 % 0.31 % 2017-01-01
989 gman48 6.59 % 0.35 % 2017-01-01
990 jeffrey77jones 6.59 % ** 0.14 % 2017-01-01
991 jmontalto19 * 6.58 % ** 1.41 % 2017-07-27
992 klaron 6.56 % 0.07 % 2017-01-01
993 KNUCKLEDRAGGER 6.52 % 0.35 % 2017-01-01
994 jumboscott * 6.52 % ** 0.98 % 2017-08-10
995 lthor 6.48 % ** 0.14 % 2017-01-01
996 Redcalf * 6.46 % ** 0.27 % 2017-02-03
997 limebalz 6.44 % 0.24 % 2017-01-01
998 FAB1 6.44 % 0.31 % 2017-01-01
999 twilliams203 * 6.44 % ** 1.02 % 2017-07-13
1000 polarbear 6.37 % ** 0.14 % 2017-01-01
Rank Username YTD Returns MTD Returns Start Date
1001 IFTrader 6.29 % -0.02 % 2017-01-01
1002 chingerson 6.21 % ** 0.43 % 2017-01-01
1003 firstpersonpl 6.16 % ** 0.45 % 2017-01-01
1004 Aitrus 6.16 % ** 0.27 % 2017-01-01
1005 jball135 * 6.09 % ** 0.53 % 2017-06-05
1006 VPX11 5.98 % ** 0.26 % 2017-01-01
1007 nancyj * 5.98 % ** 0.31 % 2017-06-09
1008 NASAedStevens 5.98 % ** 0.38 % 2017-01-01
1009 North 5.95 % ** 0.43 % 2017-01-01
1010 sagramore 5.95 % ** 0.45 % 2017-01-01
1011 kobedog 5.93 % ** 0.45 % 2017-01-01
1012 69mustang 5.90 % 0.14 % 2017-01-01
1013 p3a 5.89 % 0.14 % 2017-01-01
1014 joh1135 5.88 % ** 0.18 % 2017-01-01
1015 tdorney1 5.85 % ** 0.36 % 2017-01-01
1016 FordMan 5.82 % 0.20 % 2017-01-01
1017 iceman1jag 5.82 % ** 0.52 % 2017-01-01
1018 lsbeachwx 5.80 % 0.23 % 2017-01-01
1019 PAINTER533 5.73 % ** 0.37 % 2017-01-01
1020 JABS 5.72 % 0.83 % 2017-01-01
1021 craigerv 5.72 % 0.31 % 2017-01-01
1022 MohammadXX 5.72 % 0.41 % 2017-01-01
1023 Bmoredunks 5.70 % 0.29 % 2017-01-01
1024 ephsns2 5.67 % 1.06 % 2017-01-01
1025 tetonshasta * 5.62 % 0.31 % 2017-01-17
1026 sbates 5.62 % ** 0.42 % 2017-01-01
1027 kave 5.60 % 0.30 % 2017-01-01
1028 whiskyfire * 5.53 % ** 0.76 % 2017-06-08
1029 TwoYrs2Go 5.46 % ** 0.30 % 2017-01-01
1030 rytrucker 5.45 % ** 0.41 % 2017-01-01
1031 goldenyears 5.41 % 0.30 % 2017-01-01
1032 L-Income 5.41 % 0.30 % 2017-01-01
1033 ricokaro 5.41 % ** 0.30 % 2017-01-01
1034 farmerjack 5.41 % ** 0.29 % 2017-01-01
1035 betterdeal 5.41 % ** 0.30 % 2017-01-01
1036 Crewdog 5.41 % ** 0.30 % 2017-01-01
1037 Attila 5.40 % 0.24 % 2017-01-01
1038 ILTDtechnical 5.39 % ** 0.27 % 2017-01-01
1039 EarlyRetire 5.38 % ** 0.32 % 2017-01-01
1040 rallythis 5.36 % ** 0.14 % 2017-01-01
1041 Herdman * 5.29 % 0.92 % 2017-08-07
1042 marine 5.12 % ** 0.45 % 2017-01-01
1043 swordandcross 5.09 % ** 0.76 % 2017-01-01
1044 CallMeIshmael 5.09 % ** 0.31 % 2017-01-01
1045 Tangmonke 5.08 % ** 0.26 % 2017-01-01
1046 bohammer 5.07 % ** 0.17 % 2017-01-01
1047 DansTSP 5.05 % ** 0.32 % 2017-01-01
1048 1daybe * 5.00 % 0.87 % 2017-02-06
1049 NOLANDER 4.96 % 0.31 % 2017-01-01
1050 dmanron58 4.90 % ** 0.14 % 2017-01-01
Rank Username YTD Returns MTD Returns Start Date
1051 Skyrider2020 4.90 % ** 0.14 % 2017-01-01
1052 mrduckmd1 4.84 % ** 0.14 % 2017-01-01
1053 anthony 4.78 % ** 0.14 % 2017-01-01
1054 BellCopterJockey * 4.75 % ** 0.31 % 2017-08-16
1055 cawwilson 4.74 % 0.14 % 2017-01-01
1056 Meteorology 4.72 % ** 0.14 % 2017-01-01
1057 mikhalljr12 * 4.71 % 0.96 % 2017-09-11
1058 rudyd3 4.68 % ** 0.29 % 2017-01-01
1059 Bowfish 4.67 % ** 0.14 % 2017-01-01
1060 Holden_Caufield 4.52 % 0.27 % 2017-01-01
1061 FMS_MITCH 4.44 % 0.85 % 2017-01-01
1062 1FraGar 4.44 % ** 0.27 % 2017-01-01
1063 helpme 4.44 % ** 0.20 % 2017-01-01
1064 ctijolly * 4.42 % ** 0.34 % 2017-06-06
1065 Spaniard 4.40 % ** 0.27 % 2017-01-01
1066 mbergevinjr 4.38 % -0.18 % 2017-01-01
1067 slwhand * 4.36 % ** 0.56 % 2017-07-03
1068 wb1960 * 4.35 % ** 0.78 % 2017-07-27
1069 orange * 4.34 % 0.86 % 2017-07-13
1070 Kaulana 4.29 % 0.77 % 2017-01-01
1071 prisonguard224 4.27 % ** 0.14 % 2017-01-01
1072 EZ2K 4.26 % 0.79 % 2017-01-01
1073 99percent 4.26 % ** 0.27 % 2017-01-01
1074 dtf1993 * 4.23 % 0.46 % 2017-09-01
1075 soupydoom 4.22 % -0.11 % 2017-01-01
1076 slayer72 4.22 % 0.57 % 2017-01-01
1077 dallashalos 4.19 % 0.71 % 2017-01-01
1078 nate4sho 4.16 % ** 0.14 % 2017-01-01
1079 tink 4.14 % ** 0.14 % 2017-01-01
1080 1derman 4.13 % ** 0.14 % 2017-01-01
1081 qibovin 4.13 % ** 0.28 % 2017-01-01
1082 cchase06 * 4.00 % ** 0.64 % 2017-03-16
1083 Xilonen 4.00 % ** 0.16 % 2017-01-01
1084 Latonia64 3.98 % ** 0.28 % 2017-01-01
1085 meyersj 3.87 % ** 0.14 % 2017-01-01
1086 slowhand1964 3.87 % ** 0.26 % 2017-01-01
1087 cosinecrunchdown 3.72 % 0.27 % 2017-01-01
1088 ybnormal 3.72 % 0.27 % 2017-01-01
1089 MarkC 3.72 % ** 0.27 % 2017-01-01
1090 Gahiker 3.72 % ** 0.27 % 2017-01-01
1091 F-fund 3.72 % 0.27 % 2017-01-01
1092 trevor1953 3.72 % ** 0.27 % 2017-01-01
1093 MrVela 3.72 % ** 0.27 % 2017-01-01
1094 AHarvey311990 3.72 % ** 0.27 % 2017-01-01
1095 Muneco803 3.72 % ** 0.27 % 2017-01-01
1096 icemanknows 3.72 % ** 0.27 % 2017-01-01
1097 Titotsp 3.72 % ** 0.27 % 2017-01-01
1098 HALL 3.72 % ** 0.27 % 2017-01-01
1099 ContrarianJeff 3.72 % ** 0.27 % 2017-01-01
1100 NOVANole 3.72 % ** 0.27 % 2017-01-01
Rank Username YTD Returns MTD Returns Start Date
1101 nbialek2 3.72 % ** 0.27 % 2017-01-01
1102 JACKNAZ0506 3.72 % ** 0.27 % 2017-01-01
1103 Itchn2retire 3.72 % ** 0.27 % 2017-01-01
1104 pmcriaco 3.72 % ** 0.27 % 2017-01-01
1105 Litlbear62 3.72 % ** 0.27 % 2017-01-01
1106 milopro 3.72 % ** 0.27 % 2017-01-01
1107 cologal8 3.72 % ** 0.27 % 2017-01-01
1108 staticoverdub 3.72 % ** 0.27 % 2017-01-01
1109 samNme 3.72 % ** 0.27 % 2017-01-01
1110 keepnitreal 3.72 % ** 0.27 % 2017-01-01
1111 wayne 3.72 % ** 0.27 % 2017-01-01
1112 dprince 3.72 % ** 0.27 % 2017-01-01
1113 dibyadas 3.72 % ** 0.27 % 2017-01-01
1114 navyseal641 3.72 % ** 0.27 % 2017-01-01
1115 VincentP 3.72 % ** 0.27 % 2017-01-01
1116 Adventurer 3.72 % ** 0.27 % 2017-01-01
1117 azfreed5 3.72 % ** 0.27 % 2017-01-01
1118 Colegan 3.72 % ** 0.27 % 2017-01-01
1119 DINK 3.72 % ** 0.27 % 2017-01-01
1120 DonStar 3.72 % ** 0.27 % 2017-01-01
1121 drifter81 3.72 % ** 0.27 % 2017-01-01
1122 elitesauce 3.72 % ** 0.27 % 2017-01-01
1123 hoodoo 3.72 % ** 0.27 % 2017-01-01
1124 huskerchad 3.72 % ** 0.27 % 2017-01-01
1125 JD797 3.72 % ** 0.27 % 2017-01-01
1126 Labsroc01 3.72 % ** 0.27 % 2017-01-01
1127 Luscombesfly 3.72 % ** 0.27 % 2017-01-01
1128 masedog81 3.72 % ** 0.27 % 2017-01-01
1129 mpdcop 3.72 % ** 0.27 % 2017-01-01
1130 nab0325 3.72 % ** 0.27 % 2017-01-01
1131 pmelchman 3.72 % ** 0.27 % 2017-01-01
1132 SS4183 3.72 % ** 0.27 % 2017-01-01
1133 TSPNotley 3.72 % ** 0.27 % 2017-01-01
1134 vector4tfc 3.72 % ** 0.27 % 2017-01-01
1135 yeelah1 3.72 % ** 0.27 % 2017-01-01
1136 slickcheech 3.72 % ** 0.27 % 2017-01-01
1137 kooke 3.72 % ** 0.27 % 2017-01-01
1138 not_too_shabby 3.72 % ** 0.27 % 2017-01-01
1139 RickandRo 3.70 % ** 0.14 % 2017-01-01
1140 safetyguy 3.68 % 0.14 % 2017-01-01
1141 wkevinc * 3.64 % ** 0.27 % 2017-02-15
1142 hayman 3.59 % ** 0.14 % 2017-01-01
1143 Dsbouch1 3.53 % ** 0.14 % 2017-01-01
1144 BamaAF 3.52 % 0.14 % 2017-01-01
1145 Mr_Boooom 3.45 % ** 0.27 % 2017-01-01
1146 artie32 3.33 % 0.14 % 2017-01-01
1147 Golfdude 3.32 % ** 0.14 % 2017-01-01
1148 Tmahal720 3.31 % ** 0.37 % 2017-01-01
1149 hindsnr 3.31 % ** 0.24 % 2017-01-01
1150 scooter0037 3.31 % ** 0.24 % 2017-01-01
Rank Username YTD Returns MTD Returns Start Date
1151 burrocrat 3.27 % 0.86 % 2017-01-01
1152 jrhutch 3.16 % ** 0.27 % 2017-01-01
1153 Tawny27 3.15 % 0.23 % 2017-01-01
1154 Thunderhorse 3.10 % ** 0.22 % 2017-01-01
1155 Semper 3.08 % 0.19 % 2017-01-01
1156 alevin 3.08 % ** 0.14 % 2017-01-01
1157 btreecej 3.07 % ** 0.22 % 2017-01-01
1158 TerpTrader 2.94 % ** 0.14 % 2017-01-01
1159 kdub 2.91 % ** 0.21 % 2017-01-01
1160 road_kill 2.90 % ** 0.21 % 2017-01-01
1161 BigSnack 2.90 % ** 0.21 % 2017-01-01
1162 RAM56 2.88 % 0.21 % 2017-01-01
1163 msls6 2.78 % ** 0.14 % 2017-01-01
1164 parton1080 2.73 % ** 0.19 % 2017-01-01
1165 stbondar 2.71 % ** 0.21 % 2017-01-01
1166 Longstreet 2.69 % ** 0.14 % 2017-01-01
1167 Udflyer01 2.68 % -0.26 % 2017-01-01
1168 CaptainVic 2.66 % ** 0.17 % 2017-01-01
1169 Robvegas 2.59 % ** 0.14 % 2017-01-01
1170 EmoDx 2.57 % ** 0.18 % 2017-01-01
1171 Elkhunter 2.57 % ** 0.18 % 2017-01-01
1172 WhiskeyOne 2.52 % 0.59 % 2017-01-01
1173 Blarney 2.51 % ** 0.14 % 2017-01-01
1174 edeckman 2.50 % 0.44 % 2017-01-01
1175 SMooreAce 2.49 % ** 0.15 % 2017-01-01
1176 truema666ot 2.49 % ** 0.18 % 2017-01-01
1177 williamr 2.48 % ** 0.18 % 2017-01-01
1178 userque 2.43 % 0.35 % 2017-01-01
1179 PessOptimist 2.41 % 0.16 % 2017-01-01
1180 Ship 2.40 % ** 0.17 % 2017-01-01
1181 llealo53 2.39 % 0.14 % 2017-01-01
1182 DLBJr 2.32 % 0.26 % 2017-01-01
1183 SayWhat 2.23 % ** 0.16 % 2017-01-01
1184 whitemingo 2.22 % ** 0.14 % 2017-01-01
1185 Wasp49 2.21 % ** 0.15 % 2017-01-01
1186 lmcues 2.18 % ** 0.14 % 2017-01-01
1187 Anaconda 2.07 % 0.14 % 2017-01-01
1188 tmc1045 2.07 % 0.14 % 2017-01-01
1189 St3gz 2.07 % 0.14 % 2017-01-01
1190 spikeyball 2.07 % 0.14 % 2017-01-01
1191 sgammon 2.07 % 0.14 % 2017-01-01
1192 Congee 2.07 % 0.14 % 2017-01-01
1193 spinachetr 2.07 % 0.14 % 2017-01-01
1194 pecos_diamond 2.07 % ** 0.14 % 2017-01-01
1195 Myemal 2.07 % ** 0.14 % 2017-01-01
1196 grandma 2.07 % ** 0.14 % 2017-01-01
1197 shybear 2.07 % ** 0.14 % 2017-01-01
1198 Edna1890 2.07 % ** 0.14 % 2017-01-01
1199 Captaincuse 2.07 % ** 0.14 % 2017-01-01
1200 kdraya 2.07 % ** 0.14 % 2017-01-01
Rank Username YTD Returns MTD Returns Start Date
1201 vectorman 2.07 % ** 0.14 % 2017-01-01
1202 soyousay 2.07 % ** 0.14 % 2017-01-01
1203 burros-ark 2.07 % ** 0.14 % 2017-01-01
1204 jonfresno 2.07 % ** 0.14 % 2017-01-01
1205 angus36 2.07 % ** 0.14 % 2017-01-01
1206 Lostdawg 2.07 % ** 0.14 % 2017-01-01
1207 Master_Key 2.07 % ** 0.14 % 2017-01-01
1208 G-fund 2.07 % 0.14 % 2017-01-01
1209 Nick 2.07 % ** 0.14 % 2017-01-01
1210 alcusmc 2.07 % ** 0.14 % 2017-01-01
1211 jaybro61 2.07 % ** 0.14 % 2017-01-01
1212 OBXTrader 2.07 % ** 0.14 % 2017-01-01
1213 Groovin 2.07 % ** 0.14 % 2017-01-01
1214 Toughmudder 2.07 % ** 0.14 % 2017-01-01
1215 JEWELS1 2.07 % ** 0.14 % 2017-01-01
1216 DouglasL 2.07 % ** 0.14 % 2017-01-01
1217 bobgrem 2.07 % ** 0.14 % 2017-01-01
1218 totallykool 2.07 % ** 0.14 % 2017-01-01
1219 PKevin 2.07 % ** 0.14 % 2017-01-01
1220 skycophigh 2.07 % ** 0.14 % 2017-01-01
1221 Boomer 2.07 % ** 0.14 % 2017-01-01
1222 mtom938 2.07 % ** 0.14 % 2017-01-01
1223 WorkFE 2.07 % ** 0.14 % 2017-01-01
1224 Mr_Shekels 2.07 % ** 0.14 % 2017-01-01
1225 Zags_Cal 2.07 % ** 0.14 % 2017-01-01
1226 ebikerz 2.07 % ** 0.14 % 2017-01-01
1227 bmneveu 2.07 % ** 0.14 % 2017-01-01
1228 kar_crazy 2.07 % ** 0.14 % 2017-01-01
1229 Kimber411 2.07 % ** 0.14 % 2017-01-01
1230 Heloguy 2.07 % ** 0.14 % 2017-01-01
1231 Stonehands 2.07 % ** 0.14 % 2017-01-01
1232 quickfuze 2.07 % ** 0.14 % 2017-01-01
1233 Skunked 2.07 % ** 0.14 % 2017-01-01
1234 ChiTown 2.07 % ** 0.14 % 2017-01-01
1235 BB-Stacker 2.07 % ** 0.14 % 2017-01-01
1236 Old_Town 2.07 % ** 0.14 % 2017-01-01
1237 wasaki 2.07 % ** 0.14 % 2017-01-01
1238 OKSHEMP 2.07 % ** 0.14 % 2017-01-01
1239 eddy_t 2.07 % ** 0.14 % 2017-01-01
1240 totoylv 2.07 % ** 0.14 % 2017-01-01
1241 WildBuzz 2.07 % ** 0.14 % 2017-01-01
1242 zdcman 2.07 % ** 0.14 % 2017-01-01
1243 Jerry 2.07 % ** 0.14 % 2017-01-01
1244 hummingbird 2.07 % ** 0.14 % 2017-01-01
1245 freechina 2.07 % ** 0.14 % 2017-01-01
1246 Zepplin4 2.07 % ** 0.14 % 2017-01-01
1247 theo15 2.07 % ** 0.14 % 2017-01-01
1248 robo 2.07 % ** 0.14 % 2017-01-01
1249 JMajor 2.07 % ** 0.14 % 2017-01-01
1250 polanece 2.07 % ** 0.14 % 2017-01-01
Rank Username YTD Returns MTD Returns Start Date
1251 LimaFox 2.07 % ** 0.14 % 2017-01-01
1252 trmill2 2.07 % ** 0.14 % 2017-01-01
1253 FlyingTurtle 2.07 % ** 0.14 % 2017-01-01
1254 gumshoe45 2.07 % ** 0.14 % 2017-01-01
1255 lostclimbing 2.07 % ** 0.14 % 2017-01-01
1256 ProfitHitz 2.07 % ** 0.14 % 2017-01-01
1257 Aquaman 2.07 % ** 0.14 % 2017-01-01
1258 tinker1 2.07 % ** 0.14 % 2017-01-01
1259 korrianderson 2.07 % ** 0.14 % 2017-01-01
1260 Deano64 2.07 % ** 0.14 % 2017-01-01
1261 HoustonJoe 2.07 % ** 0.14 % 2017-01-01
1262 kb9nvh 2.07 % ** 0.14 % 2017-01-01
1263 mochatater 2.07 % ** 0.14 % 2017-01-01
1264 mrbossman 2.07 % ** 0.14 % 2017-01-01
1265 Sepr8tr 2.07 % ** 0.14 % 2017-01-01
1266 woodsman 2.07 % ** 0.14 % 2017-01-01
1267 budfox 2.07 % ** 0.14 % 2017-01-01
1268 ExtremeWX 2.07 % ** 0.14 % 2017-01-01
1269 goldwell 2.07 % ** 0.14 % 2017-01-01
1270 mebrow5 2.07 % ** 0.14 % 2017-01-01
1271 minnow 2.07 % ** 0.14 % 2017-01-01
1272 mmk119 2.07 % ** 0.14 % 2017-01-01
1273 RATMONEY 2.07 % ** 0.14 % 2017-01-01
1274 FairShare 2.07 % ** 0.14 % 2017-01-01
1275 beachpeach80 2.07 % ** 0.14 % 2017-01-01
1276 budmaster 2.07 % ** 0.14 % 2017-01-01
1277 sabri11 2.07 % ** 0.14 % 2017-01-01
1278 osseo 2.07 % ** 0.14 % 2017-01-01
1279 INSITES 2.07 % ** 0.14 % 2017-01-01
1280 Kite_Runner 2.07 % ** 0.14 % 2017-01-01
1281 Rotre52 2.07 % ** 0.14 % 2017-01-01
1282 anthonyc220 2.07 % ** 0.14 % 2017-01-01
1283 nsurf9 2.07 % ** 0.14 % 2017-01-01
1284 1peckcd4 2.07 % ** 0.14 % 2017-01-01
1285 2peaches2oranges 2.07 % ** 0.14 % 2017-01-01
1286 agrimm01 2.07 % ** 0.14 % 2017-01-01
1287 Bantley64 2.07 % ** 0.14 % 2017-01-01
1288 BayouTrader 2.07 % ** 0.14 % 2017-01-01
1289 bgoldman 2.07 % ** 0.14 % 2017-01-01
1290 blueskies 2.07 % ** 0.14 % 2017-01-01
1291 Br0k3n4rr0w 2.07 % ** 0.14 % 2017-01-01
1292 BULLonPARADE 2.07 % ** 0.14 % 2017-01-01
1293 BUSHIDO 2.07 % ** 0.14 % 2017-01-01
1294 cedrus 2.07 % ** 0.14 % 2017-01-01
1295 cgooch 2.07 % ** 0.14 % 2017-01-01
1296 coerik1983 2.07 % ** 0.14 % 2017-01-01
1297 Concabar 2.07 % ** 0.14 % 2017-01-01
1298 Corepuncher 2.07 % ** 0.14 % 2017-01-01
1299 Cortez 2.07 % ** 0.14 %